Regional Weather Roundup
Issued by NWS Memphis, TN

Home | Current Version | Previous Version | Text Only | Print | Product List | Glossary On
Versions: 1 2 3 4 5 6 7 8 9 10 11 12 13 14 15 16 17 18 19 20 21 22 23 24 25 26 27 28 29 30 31 32 33 34 35 36 37 38 39 40 41 42 43 44 45 46 47 48 49 50
884
ASUS44 KMEG 221900
RWRMEG
MEMPHIS CWA HOURLY WEATHER ROUNDUP
NATIONAL WEATHER SERVICE MEMPHIS TN
100 PM CST WED NOV 22 2017

...WEST TENNESSEE...

CITY           SKY/WX    TMP DP  RH WIND       PRES   REMARKS
MEMPHIS INTL   SUNNY     47  25  42 NE8       30.28F
NWS MEMPHIS      N/A     46 N/A N/A MISG        N/A
JACKSON        SUNNY     45  25  45 N10       30.27F
DYERSBURG      SUNNY     45  24  43 N10       30.30F


...EASTERN ARKANSAS...

CITY           SKY/WX    TMP DP  RH WIND       PRES   REMARKS
JONESBORO      SUNNY     44  25  47 E8G16     30.33F
WEST MEMPHIS   SUNNY     46  27  47 NE7       30.29F
BATESVILLE     SUNNY     46  20  35 NE3       30.33F
NEWPORT        SUNNY     43  23  45 N8        30.34F
BLYTHEVILLE    SUNNY     44  26  49 NE9       30.31F
SEARCY         SUNNY     48  22  35 NE8       30.33F
STUTTGART      SUNNY     47  23  38 NE13G18   30.31F
PINE BLUFF     SUNNY     47  24  40 N13       30.31F
MONTICELLO     SUNNY     50  25  37 NE8       30.29F


...NORTH MISSISSIPPI...

CITY           SKY/WX    TMP DP  RH WIND       PRES   REMARKS
TUPELO         SUNNY     51  23  33 N15       30.22F
OXFORD         SUNNY     50  23  34 N8G15     30.25F
BATESVILLE     SUNNY     52  23  32 N10       30.26F
TUNICA           N/A    N/A N/A N/A N10       30.30F
CLARKSDALE       N/A     48  28  46 N16G23    30.28F
GREENWOOD      SUNNY     55  27  34 N9        30.21F
COLUMBUS       SUNNY     54  32  43 NW16      30.17F
STARKVILLE     SUNNY     54  28  37 N9G16     30.19F
GOLDEN TRIANGL SUNNY     56  29  35 N14G23    30.17F


...SOUTHEAST MISSOURI...

CITY           SKY/WX    TMP DP  RH WIND       PRES   REMARKS
KENNETT        SUNNY     43  27  52 NE10G17   30.31F
MALDEN         SUNNY     41  23  48 N12       30.33F
WEST PLAINS    SUNNY     44  14  29 VRB6      30.31F
POPLAR BLUFF   SUNNY     44  20  38 N7        30.31F
CAPE GIRARDEAU SUNNY     41  20  43 MISG      30.31F


...NORTHWEST ALABAMA...

CITY           SKY/WX    TMP DP  RH WIND       PRES   REMARKS
MUSCLE SHOALS  SUNNY     52  26  36 N8        30.22F


...MIDDLE TENNESSEE...

CITY           SKY/WX    TMP DP  RH WIND       PRES   REMARKS
NASHVILLE      PTSUNNY   48  25  40 N10       30.24F
CLARKSVILLE    SUNNY     44  24  45 N8        30.28F


...WESTERN KENTUCKY...

CITY           SKY/WX    TMP DP  RH WIND       PRES   REMARKS
PADUCAH        SUNNY     44  21  40 NE6       30.29F
FORT CAMPBELL  SUNNY     43  24  47 NW6       30.27F


...CENTRAL ARKANSAS...

CITY           SKY/WX    TMP DP  RH WIND       PRES   REMARKS
LITTLE ROCK    SUNNY     49  21  33 N7        30.32F


SKY/WX REPORTED AS FAIR MEANS FEW OR NO CLOUDS BELOW
12 THOUSAND FEET.





USA.gov is the U.S. government's official web portal to all federal, state and local government web resources and services.